Powrót do katalogu

FENGYUN 1C DEB

AktywnySSO
NORAD 31247·DEBRIS·🇨🇳 China

Wystrzelony May 10, 1999 z Taiyuan Satellite Launch Center

Loading…

Następne Przeloty (najbliższe 24 godziny)

TLE

ŚwieżeSource: Space-Track

Epoka: Sep 14, 2026, 10:44 UTC

1 31247U 99025BMD 26257.44761624  .00000503  00000-0  33210-3 0  9998
2 31247  99.3414 159.3429 0060456  25.8462  30.5749 14.05672051993943

Śledź FENGYUN 1C DEB w czasie rzeczywistym z AllMySat

Download on the App Store